Вернуться в каталог

COSMOS 718

АктивенВоенныеLEO
NORAD 7685·PAYLOAD·🇷🇺 Russia

Запущен Feb 28, 1975 с Plesetsk Cosmodrome

Loading…

Ближайшие Пролёты (ближайшие 24 часа)

TLE

СвежийSource: Space-Track

Эпоха: Sep 14, 2026, 13:25 UTC

1 07685U 75016H   26257.55971568 -.00000016  00000-0  21068-5 0  9993
2 07685  74.0006 100.0339 0039153 252.1442 135.3617 12.51395929354578

Отслеживайте COSMOS 718 в реальном времени с AllMySat

Download on the App Store